AFL2121 LTFE-UUEE

Flight info

Callsign AFL2121
Flight time N/A
Altitude 33000
Route N0460F330 CENGO UW95 CRD UN136 KFK UT54 HALIL UW77 BAG UT61 SIN UW96 ODIRA G487 ERSAR DCT BEMES DCT VULFI DCT TUVGI DCT EVZUN DCT ZIZAR DCT VAZLU DCT UZZID DCT NOKLI N72 WGD G481 OBABI T619 UMRAL P163 LADIM/K0867F360 P163 GOLRI L736 OLOPI
Aircraft B738/M-VGDW/C

Departure

Time 2026-04-29 15:34
Airport Milas Bodrum International Airport (LTFE)

Arrival

Time N/A
Airport Sheremetyevo International Airport (UUEE)
Time Latitude Longitude Altitude Speed Heading
2026-04-29 15:04 37.24408 27.67710 29 ft 0 kts 197°
2026-04-29 15:17 37.24419 27.67714 29 ft 3 kts 198°
2026-04-29 15:17 37.24431 27.67720 29 ft 3 kts 198°
2026-04-29 15:18 37.24457 27.67728 29 ft 3 kts 188°
2026-04-29 15:18 37.24477 27.67732 29 ft 3 kts 189°
2026-04-29 15:18 37.24495 27.67735 29 ft 2 kts 185°
2026-04-29 15:18 37.24502 27.67736 29 ft 0 kts 185°
2026-04-29 15:21 37.24501 27.67735 29 ft 0 kts 188°
2026-04-29 15:21 37.24501 27.67734 28 ft 0 kts 202°
2026-04-29 15:21 37.24500 27.67733 29 ft 0 kts 216°
2026-04-29 15:22 37.24500 27.67731 29 ft 0 kts 232°
2026-04-29 15:22 37.24498 27.67718 29 ft 3 kts 257°
2026-04-29 15:22 37.24497 27.67686 29 ft 4 kts 278°
2026-04-29 15:22 37.24502 27.67651 29 ft 4 kts 285°
2026-04-29 15:23 37.24510 27.67616 29 ft 4 kts 284°
2026-04-29 15:23 37.24517 27.67582 29 ft 4 kts 287°
2026-04-29 15:23 37.24525 27.67549 29 ft 4 kts 284°
2026-04-29 15:23 37.24532 27.67516 29 ft 4 kts 287°
2026-04-29 15:24 37.24540 27.67484 29 ft 4 kts 287°
2026-04-29 15:24 37.24548 27.67450 29 ft 5 kts 287°
2026-04-29 15:24 37.24567 27.67377 29 ft 12 kts 289°
2026-04-29 15:24 37.24596 27.67259 29 ft 17 kts 285°
2026-04-29 15:25 37.24629 27.67112 29 ft 17 kts 287°
2026-04-29 15:25 37.24663 27.66969 29 ft 17 kts 288°
2026-04-29 15:25 37.24696 27.66831 29 ft 16 kts 287°
2026-04-29 15:25 37.24729 27.66698 28 ft 16 kts 286°
2026-04-29 15:26 37.24759 27.66571 29 ft 15 kts 288°
2026-04-29 15:26 37.24805 27.66457 29 ft 14 kts 292°
2026-04-29 15:26 37.24835 27.66341 29 ft 14 kts 287°
2026-04-29 15:26 37.24862 27.66229 29 ft 13 kts 287°
2026-04-29 15:27 37.24887 27.66121 29 ft 13 kts 286°
2026-04-29 15:27 37.24911 27.66016 29 ft 12 kts 286°
2026-04-29 15:27 37.24942 27.65945 29 ft 8 kts 334°
2026-04-29 15:27 37.24998 27.65948 29 ft 8 kts 14°
2026-04-29 15:28 37.25052 27.65962 30 ft 8 kts 354°
2026-04-29 15:28 37.25078 27.65935 29 ft 8 kts 290°
2026-04-29 15:28 37.25025 27.65895 29 ft 8 kts 184°
2026-04-29 15:28 37.24982 27.65921 29 ft 8 kts 92°
2026-04-29 15:29 37.25013 27.65954 29 ft 0 kts 14°
2026-04-29 15:30 37.25020 27.65956 29 ft 3 kts 13°
2026-04-29 15:30 37.25059 27.65958 30 ft 8 kts 339°
2026-04-29 15:30 37.25088 27.65905 30 ft 7 kts 292°
2026-04-29 15:31 37.25104 27.65842 29 ft 8 kts 286°
2026-04-29 15:31 37.25130 27.65732 28 ft 19 kts 285°
2026-04-29 15:31 37.25175 27.65545 29 ft 23 kts 286°
2026-04-29 15:31 37.25220 27.65354 28 ft 24 kts 287°
2026-04-29 15:32 37.25269 27.65147 29 ft 26 kts 287°
2026-04-29 15:32 37.25312 27.64954 30 ft 11 kts 278°
2026-04-29 15:32 37.25331 27.64886 31 ft 8 kts 28°
2026-04-29 15:32 37.25315 27.64952 30 ft 9 kts 105°
2026-04-29 15:33 37.25293 27.65042 30 ft 19 kts 106°
2026-04-29 15:33 37.25196 27.65453 29 ft 84 kts 107°
2026-04-29 15:33 37.24963 27.66429 27 ft 147 kts 106°
2026-04-29 15:33 37.24584 27.67831 216 ft 183 kts 111°
2026-04-29 15:34 37.24165 27.69324 997 ft 184 kts 119°
2026-04-29 15:34 37.23438 27.70650 1794 ft 182 kts 124°
2026-04-29 15:34 37.22787 27.72057 2435 ft 194 kts 122°
2026-04-29 15:34 37.21976 27.73507 2828 ft 210 kts 130°
2026-04-29 15:35 37.21043 27.74964 3270 ft 219 kts 130°
2026-04-29 15:35 37.20167 27.76592 3619 ft 234 kts 121°
2026-04-29 15:35 37.19330 27.78435 3849 ft 251 kts 119°
2026-04-29 15:35 37.18472 27.80412 4357 ft 257 kts 117°
2026-04-29 15:36 37.17646 27.82356 5054 ft 255 kts 117°
2026-04-29 15:36 37.16808 27.84353 5715 ft 256 kts 116°
2026-04-29 15:36 37.15983 27.86339 6337 ft 257 kts 116°
2026-04-29 15:36 37.15157 27.88335 6943 ft 259 kts 116°
2026-04-29 15:37 37.14325 27.90350 7493 ft 262 kts 116°
2026-04-29 15:37 37.13484 27.92393 8063 ft 264 kts 116°
2026-04-29 15:37 37.12640 27.94446 8634 ft 266 kts 116°
2026-04-29 15:37 37.11791 27.96510 9182 ft 267 kts 117°
2026-04-29 15:38 37.10934 27.98592 9683 ft 271 kts 117°
2026-04-29 15:38 37.10065 28.00700 10195 ft 273 kts 117°
2026-04-29 15:38 37.09191 28.02818 10730 ft 274 kts 117°
2026-04-29 15:38 37.08383 28.04992 11167 ft 280 kts 106°
2026-04-29 15:39 37.08107 28.07481 11303 ft 300 kts 91°
2026-04-29 15:39 37.08126 28.10178 11492 ft 321 kts 88°
2026-04-29 15:39 37.08410 28.13029 11615 ft 341 kts 70°
2026-04-29 15:39 37.09494 28.15745 11805 ft 359 kts 59°
2026-04-29 15:40 37.10803 28.18499 11942 ft 377 kts 58°
2026-04-29 15:40 37.12172 28.21389 12117 ft 393 kts 59°
2026-04-29 15:40 37.13553 28.24380 12560 ft 399 kts 59°
2026-04-29 15:40 37.14952 28.27448 13144 ft 402 kts 59°
2026-04-29 15:41 37.16414 28.30393 13706 ft 404 kts 57°
2026-04-29 15:41 37.17837 28.33436 14196 ft 409 kts 60°
2026-04-29 15:41 37.19238 28.36619 14705 ft 412 kts 60°
2026-04-29 15:41 37.20605 28.39739 15224 ft 415 kts 60°
2026-04-29 15:42 37.22014 28.42906 15741 ft 418 kts 59°
2026-04-29 15:42 37.23446 28.46095 16242 ft 421 kts 59°
2026-04-29 15:42 37.24910 28.49342 16694 ft 425 kts 59°
2026-04-29 15:42 37.26380 28.52593 17126 ft 428 kts 59°
2026-04-29 15:43 37.27828 28.55797 17544 ft 432 kts 59°
2026-04-29 15:43 37.29319 28.59100 17997 ft 434 kts 59°
2026-04-29 15:43 37.30831 28.62453 18446 ft 437 kts 59°
2026-04-29 15:43 37.32309 28.65741 18876 ft 439 kts 59°
2026-04-29 15:44 37.33815 28.69094 19307 ft 442 kts 59°
2026-04-29 15:44 37.35326 28.72462 19723 ft 444 kts 59°
2026-04-29 15:44 37.36857 28.75854 20137 ft 447 kts 59°
2026-04-29 15:44 37.38406 28.79246 20532 ft 449 kts 58°
2026-04-29 15:45 37.39973 28.82664 20916 ft 452 kts 58°
2026-04-29 15:45 37.41549 28.86104 21304 ft 454 kts 58°
2026-04-29 15:45 37.43127 28.89559 21641 ft 457 kts 58°
2026-04-29 15:45 37.44695 28.93003 21991 ft 459 kts 59°
2026-04-29 15:46 37.46294 28.96517 22320 ft 462 kts 59°
2026-04-29 15:46 37.47896 29.00045 22667 ft 464 kts 59°
2026-04-29 15:46 37.49499 29.03579 22985 ft 466 kts 59°
2026-04-29 15:46 37.51103 29.07119 23296 ft 468 kts 59°
2026-04-29 15:47 37.51354 29.07675 23343 ft 468 kts 59°
2026-04-29 15:47 37.52212 29.09573 23495 ft 469 kts 59°
2026-04-29 15:47 37.53844 29.13183 23792 ft 471 kts 59°
2026-04-29 15:48 37.55464 29.16772 24091 ft 473 kts 59°
2026-04-29 15:48 37.57094 29.20386 24363 ft 475 kts 59°
2026-04-29 15:48 37.58421 29.23331 24584 ft 476 kts 59°
2026-04-29 15:48 37.58524 29.23558 24599 ft 476 kts 59°
2026-04-29 15:49 37.60151 29.27197 24864 ft 478 kts 59°
2026-04-29 15:49 37.60218 29.27349 24868 ft 479 kts 59°
2026-04-29 15:49 37.60848 29.28776 24958 ft 479 kts 59°
2026-04-29 15:49 37.62462 29.32452 25182 ft 482 kts 59°
2026-04-29 15:50 37.64086 29.36171 25453 ft 484 kts 59°
2026-04-29 15:50 37.65710 29.39892 25742 ft 485 kts 59°
2026-04-29 15:50 37.67343 29.43634 25987 ft 487 kts 59°
2026-04-29 15:50 37.68989 29.47402 26208 ft 489 kts 59°
2026-04-29 15:51 37.69153 29.47778 26228 ft 489 kts 59°
2026-04-29 15:51 37.70095 29.49934 26344 ft 490 kts 59°
2026-04-29 15:51 37.71747 29.53720 26607 ft 491 kts 59°
2026-04-29 15:51 37.73388 29.57487 26975 ft 488 kts 59°
2026-04-29 15:52 37.75008 29.61209 27344 ft 487 kts 59°
2026-04-29 15:52 37.76652 29.64976 27630 ft 487 kts 58°
2026-04-29 15:52 37.78539 29.68491 27871 ft 485 kts 48°
2026-04-29 15:52 37.80830 29.71585 28219 ft 481 kts 40°
2026-04-29 15:53 37.83438 29.74237 28548 ft 476 kts 31°
2026-04-29 15:53 37.86201 29.76488 28807 ft 476 kts 30°
2026-04-29 15:53 37.88996 29.78712 29048 ft 476 kts 30°
2026-04-29 15:54 37.89682 29.79259 29122 ft 476 kts 30°
2026-04-29 15:54 37.92907 29.81844 29499 ft 475 kts 30°
2026-04-29 15:54 37.95621 29.84045 29833 ft 473 kts 30°
2026-04-29 15:55 37.96945 29.85127 29964 ft 473 kts 30°
2026-04-29 15:55 37.99720 29.87406 30209 ft 473 kts 30°
2026-04-29 15:55 38.02485 29.89686 30479 ft 473 kts 30°
2026-04-29 15:55 38.05216 29.91942 30784 ft 471 kts 30°
2026-04-29 15:56 38.07976 29.94224 31067 ft 471 kts 30°
2026-04-29 15:56 38.10713 29.96486 31289 ft 471 kts 30°
2026-04-29 15:56 38.13458 29.98756 31528 ft 471 kts 30°
2026-04-29 15:56 38.16195 30.01021 31825 ft 469 kts 30°
2026-04-29 15:57 38.18913 30.03270 32064 ft 469 kts 30°
2026-04-29 15:57 38.21665 30.05546 32267 ft 469 kts 30°
2026-04-29 15:57 38.23178 30.06799 32387 ft 469 kts 30°
2026-04-29 15:57 38.24470 30.07869 32500 ft 469 kts 30°
2026-04-29 15:58 38.27219 30.10148 32706 ft 469 kts 30°
2026-04-29 15:58 38.29962 30.12425 32927 ft 468 kts 30°
2026-04-29 15:58 38.32674 30.14678 33023 ft 469 kts 29°
2026-04-29 15:59 38.38134 30.19220 33021 ft 467 kts 30°
2026-04-29 15:59 38.43560 30.23743 33029 ft 464 kts 29°
2026-04-29 16:00 38.48048 30.27489 33039 ft 463 kts 29°
2026-04-29 16:00 38.51526 30.30419 33039 ft 464 kts 32°
2026-04-29 16:01 38.53162 30.32042 33027 ft 467 kts 37°
2026-04-29 16:01 38.57529 30.38280 33053 ft 472 kts 48°
2026-04-29 16:02 38.61617 30.44850 33065 ft 475 kts 47°
2026-04-29 16:02 38.63702 30.48153 33206 ft 476 kts 47°
2026-04-29 16:02 38.65793 30.51434 33474 ft 474 kts 47°
2026-04-29 16:02 38.67872 30.54683 33741 ft 472 kts 47°
2026-04-29 16:03 38.69950 30.57930 33965 ft 472 kts 46°
2026-04-29 16:03 38.72005 30.61219 34122 ft 474 kts 50°
2026-04-29 16:03 38.73752 30.64815 34317 ft 477 kts 57°
2026-04-29 16:03 38.75329 30.68558 34493 ft 478 kts 58°
2026-04-29 16:04 38.76873 30.72326 34593 ft 480 kts 59°
2026-04-29 16:04 38.78426 30.76131 34714 ft 481 kts 58°
2026-04-29 16:04 38.79971 30.79893 34940 ft 479 kts 58°
2026-04-29 16:05 38.83114 30.87457 35041 ft 482 kts 58°
2026-04-29 16:05 38.86286 30.95035 35041 ft 480 kts 58°
2026-04-29 16:06 38.89430 31.02552 35041 ft 476 kts 58°
2026-04-29 16:06 38.92543 31.10014 35050 ft 474 kts 58°
2026-04-29 16:07 38.95645 31.17471 35048 ft 474 kts 58°
2026-04-29 16:07 38.98747 31.24948 35051 ft 474 kts 58°
2026-04-29 16:08 39.01853 31.32453 35054 ft 476 kts 58°
2026-04-29 16:08 39.04962 31.39983 35051 ft 478 kts 58°
2026-04-29 16:09 39.08080 31.47553 35045 ft 480 kts 58°
2026-04-29 16:09 39.11187 31.55118 35050 ft 482 kts 58°
2026-04-29 16:10 39.14314 31.62751 35048 ft 483 kts 58°
2026-04-29 16:10 39.17093 31.69547 35051 ft 484 kts 58°
2026-04-29 16:11 39.17414 31.70332 35048 ft 484 kts 58°
2026-04-29 16:11 39.20549 31.78022 35048 ft 485 kts 58°
2026-04-29 16:12 39.23454 31.85881 35046 ft 487 kts 63°
2026-04-29 16:12 39.25985 31.94005 35048 ft 487 kts 64°
2026-04-29 16:13 39.28512 32.02170 35045 ft 487 kts 64°
2026-04-29 16:13 39.31032 32.10172 35045 ft 486 kts 64°
2026-04-29 16:14 39.33611 32.18328 35041 ft 485 kts 64°
2026-04-29 16:14 39.36133 32.26335 35038 ft 484 kts 64°
2026-04-29 16:15 39.39169 32.33984 35036 ft 471 kts 45°
2026-04-29 16:15 39.41468 32.37002 35041 ft 462 kts 33°
2026-04-29 16:15 39.44058 32.39280 35032 ft 451 kts 21°
2026-04-29 16:16 39.49679 32.42881 35040 ft 451 kts 20°
2026-04-29 16:16 39.55291 32.46510 35041 ft 452 kts 21°
2026-04-29 16:17 39.60911 32.50207 35038 ft 454 kts 21°
2026-04-29 16:17 39.66564 32.53957 35028 ft 456 kts 21°
2026-04-29 16:18 39.72216 32.57718 35035 ft 457 kts 21°
2026-04-29 16:18 39.77913 32.61514 35032 ft 458 kts 21°
2026-04-29 16:19 39.83557 32.65280 35028 ft 459 kts 21°
2026-04-29 16:19 39.88181 32.68370 35026 ft 459 kts 21°